Weather History for KHKA - December, 2011

Change the Weather History Date:

Monday, December 12, 2011

  Actual Average Record
Temperature  
Mean Temperature 40 °F -  
Max Temperature 53 °F 50 °F 75 °F (1931)
Min Temperature 28 °F 34 °F 2 °F (1962)
Degree Days  
Heating Degree Days 24    
Moisture  
Dew Point 33 °F    
Average Humidity 71    
Maximum Humidity 82    
Minimum Humidity 47    
Precipitation  
Precipitation 0.00 in - - ()
Sea Level Pressure  
Sea Level Pressure 30.40 in    
Wind  
Wind Speed 3 mph (East)    
Max Wind Speed 7 mph    
Max Gust Speed -    
Visibility 10 miles    
Events Snow    
Averages and records for this station are not official NWS values.
T = Trace of Precipitation, MM = Missing Value Source: NWS Daily Summary

Daily Weather History Graph

Daily Weather History Graph

Search for Another Location

Airport or City:

Trip Planner

Search our weather history database for the weather conditions in past years. The results will help you decide how hot, cold, wet, or windy it might be!

Date:

Astronomy

Dec. 12, 2011 Rise Set
Actual Time 7:00 AM CST 4:45 PM CST
Civil Twilight 6:31 AM CST 5:14 PM CST
Nautical Twilight 5:59 AM CST 5:46 PM CST
Astronomical Twilight 5:28 AM CST 6:17 PM CST
Moon 6:55 PM CST (12/12) 8:33 AM CST (12/12)
Length of Visible Light 10h 42m
Length of Day
9h 45m
Waning Gibbous, 95% of the Moon is Illuminated
Dec 12
Waning Gibbous
Dec 17
Last Quarter
Dec 24
New
Jan 1
First Quarter
Jan 9
Full

Hourly Weather History & Observations

Time (CST) Temp. Windchill Dew Point Humidity Pressure Visibility Wind Dir Wind Speed Gust Speed Precip Events Conditions
12:53 AM 28.9 °F 25.2 °F 24.1 °F 82% 30.40 in 10.0 mi NE 3.5 mph - N/A   Clear
1:53 AM 28.9 °F 25.2 °F 24.1 °F 82% 30.40 in 10.0 mi ENE 3.5 mph - N/A   Clear
2:53 AM 28.9 °F 23.9 °F 23.0 °F 78% 30.40 in 10.0 mi East 4.6 mph - N/A   Clear
3:53 AM 30.9 °F 24.3 °F 25.0 °F 79% 30.39 in 9.0 mi East 6.9 mph - 0.00 in Snow Light Snow
4:53 AM 34.0 °F 29.8 °F 28.0 °F 79% 30.39 in 9.0 mi East 4.6 mph - 0.00 in Snow Light Snow
5:53 AM 34.0 °F 31.0 °F 28.0 °F 79% 30.40 in 9.0 mi ESE 3.5 mph - 0.00 in   Partly Cloudy
6:53 AM 34.0 °F - 28.0 °F 79% 30.41 in 10.0 mi Calm Calm - N/A   Unknown
8:53 AM 41.0 °F - 33.1 °F 73% 30.43 in 10.0 mi Calm Calm - 0.00 in   Unknown
9:53 AM 45.0 °F 42.6 °F 32.0 °F 60% 30.42 in 10.0 mi South 4.6 mph - N/A   Clear
10:53 AM 46.0 °F - 33.1 °F 61% 30.43 in 10.0 mi Calm Calm - N/A   Clear
11:53 AM 48.9 °F - 34.0 °F 56% 30.41 in 10.0 mi West 4.6 mph - N/A   Clear
12:53 PM 50.0 °F - 33.1 °F 52% 30.39 in 10.0 mi Calm Calm - N/A   Clear
1:53 PM 53.1 °F - 33.1 °F 47% 30.38 in 10.0 mi Calm Calm - N/A   Clear
2:53 PM 52.0 °F - 33.1 °F 49% 30.39 in 10.0 mi Calm Calm - N/A   Clear
3:53 PM 51.1 °F - 36.0 °F 56% 30.38 in 10.0 mi Calm Calm - N/A   Clear
5:53 PM 45.0 °F 41.8 °F 37.0 °F 74% 30.37 in 10.0 mi East 5.8 mph - N/A   Clear
6:53 PM 44.1 °F - 37.0 °F 76% 30.39 in 10.0 mi Calm Calm - N/A   Clear
7:53 PM 44.1 °F 42.5 °F 37.9 °F 79% 30.40 in 10.0 mi North 3.5 mph - N/A   Mostly Cloudy
8:53 PM 44.1 °F - 39.0 °F 82% 30.41 in 10.0 mi Calm Calm - N/A   Overcast
9:53 PM 45.0 °F 42.6 °F 37.9 °F 76% 30.40 in 10.0 mi East 4.6 mph - N/A   Overcast
10:53 PM 46.0 °F 44.8 °F 39.9 °F 79% 30.40 in 10.0 mi SSE 3.5 mph - N/A   Scattered Clouds
11:53 PM 46.0 °F 43.9 °F 39.9 °F 79% 30.40 in 10.0 mi SE 4.6 mph - N/A   Mostly Cloudy